Merced, CA

11:25 PM PDT on August 23, 2016 (GMT -0700)
Castle

Weather History for KMER - January, 2014

Change the Weather History Date:

Tuesday, January 7, 2014

  Actual Average (KMCE) Record (KMCE)
Temperature  
Mean Temperature 50 °F 44 °F  
Max Temperature 62 °F 52 °F 66 °F (2015)
Min Temperature 35 °F 36 °F 28 °F (2000)
Degree Days  
Heating Degree Days 16    
Month to date heating degree days  
Since 1 July heating degree days  
Cooling Degree Days 0    
Month to date cooling degree days  
Year to date cooling degree days  
Moisture  
Dew Point 40 °F    
Average Humidity 89    
Maximum Humidity 100    
Minimum Humidity 37    
Precipitation  
Precipitation 0.00 in 0.10 in 0.44 in (2005)
Month to date precipitation 0.75  
Year to date precipitation 0.75  
Snow  
Snow 0.00 in - - ()
Month to date snowfall  
Since 1 July snowfall  
Snow Depth -    
Sea Level Pressure  
Sea Level Pressure 30.17 in    
Wind  
Wind Speed 1 mph (North)    
Max Wind Speed 6 mph    
Max Gust Speed -    
Visibility 5 miles    
Events      
T = Trace of Precipitation, MM = Missing Value Source: NWS Daily Summary

Daily Weather History Graph

Daily Weather History Graph

Search for Another Location

Airport or City:

Trip Planner

Search our weather history database for the weather conditions in past years. The results will help you decide how hot, cold, wet, or windy it might be!

Date:

Astronomy

Jan. 07, 2014 Rise Set
Actual Time 7:16 AM PST 5:00 PM PST
Civil Twilight 6:48 AM PST 5:29 PM PST
Nautical Twilight 6:15 AM PST 6:01 PM PST
Astronomical Twilight 5:44 AM PST 6:33 PM PST
Moon 11:18 AM PST (1/7) No Moon Set
Length of Visible Light 10h 41m
Length of Day
9h 43m
Waxing Crescent, 46% of the Moon is Illuminated
Jan 7
Waxing Crescent
Jan 7
First Quarter
Jan 15
Full
Jan 23
Last Quarter
Jan 30
New

Hourly Weather History & Observations

Time (PST) Temp. Windchill Dew Point Humidity Pressure Visibility Wind Dir Wind Speed Gust Speed Precip Events Conditions
12:15 AM 46.4 °F 45.2 °F 42.8 °F 87% 30.17 in 5.0 mi West 3.5 mph - N/A   Clear
12:35 AM 46.4 °F - 42.8 °F 87% 30.17 in 5.0 mi Calm Calm - N/A   Clear
12:55 AM 44.6 °F - 42.8 °F 93% 30.16 in 5.0 mi Calm Calm - N/A   Clear
1:15 AM 44.6 °F - 44.6 °F 100% 30.16 in 5.0 mi Calm Calm - N/A   Clear
1:35 AM 42.8 °F 41.1 °F 42.8 °F 100% 30.16 in 5.0 mi ESE 3.5 mph - N/A   Clear
1:55 AM 42.8 °F - 42.8 °F 100% 30.17 in 5.0 mi Calm Calm - N/A   Clear
2:15 AM 41.0 °F 38.0 °F 41.0 °F 100% 30.18 in 5.0 mi NE 4.6 mph - N/A   Clear
2:35 AM 39.2 °F - 39.2 °F 100% 30.18 in 5.0 mi Calm Calm - N/A   Clear
2:55 AM 41.0 °F - 41.0 °F 100% 30.18 in 5.0 mi Calm Calm - N/A   Clear
3:15 AM 41.0 °F - 41.0 °F 100% 30.17 in 4.0 mi Calm Calm - N/A   Clear
3:35 AM 41.0 °F - 41.0 °F 100% 30.18 in 4.0 mi Calm Calm - N/A   Clear
3:55 AM 42.8 °F 40.1 °F 42.8 °F 100% 30.18 in 4.0 mi NE 4.6 mph - N/A   Clear
4:15 AM 41.0 °F 38.0 °F 41.0 °F 100% 30.17 in 5.0 mi NNE 4.6 mph - N/A   Clear
4:35 AM 39.2 °F 35.9 °F 39.2 °F 100% 30.17 in 5.0 mi NNE 4.6 mph - N/A   Clear
4:55 AM 39.2 °F - 39.2 °F 100% 30.17 in 5.0 mi Calm Calm - N/A   Clear
5:15 AM 41.0 °F - 41.0 °F 100% 30.17 in 5.0 mi Calm Calm - N/A   Clear
5:35 AM 39.2 °F - 39.2 °F 100% 30.17 in 5.0 mi Calm Calm - N/A   Clear
5:55 AM 37.4 °F - 37.4 °F 100% 30.17 in 4.0 mi Calm Calm - N/A   Clear
6:45 AM 37.4 °F - 37.4 °F 100% 30.17 in 5.0 mi Calm Calm - N/A   Haze
7:45 AM 37.4 °F - 37.4 °F 100% 30.18 in 3.0 mi Calm Calm - N/A   Mostly Cloudy
8:50 AM 41.0 °F - 41.0 °F 100% 30.21 in 3.0 mi Calm Calm - N/A   Mostly Cloudy
9:45 AM 46.4 °F 45.2 °F 46.4 °F 100% 30.20 in 3.0 mi Variable 3.5 mph - N/A   Overcast
10:50 AM 53.6 °F - 44.6 °F 72% 30.20 in 3.0 mi Calm Calm - N/A   Haze
11:45 AM 57.2 °F - 39.2 °F 51% 30.18 in 3.0 mi Calm Calm - N/A   Haze
12:45 PM 57.2 °F - 37.4 °F 48% 30.17 in 4.0 mi NW 5.8 mph - N/A   Haze
1:45 PM 60.8 °F - 37.4 °F 42% 30.14 in 4.0 mi NW 5.8 mph - N/A   Haze
2:45 PM 62.6 °F - 35.6 °F 37% 30.14 in 4.0 mi Calm Calm - N/A   Haze
3:45 PM 62.6 °F - 35.6 °F 37% 30.13 in 4.0 mi Calm Calm - N/A   Haze
4:45 PM 57.2 °F - 37.4 °F 48% 30.13 in 4.0 mi Calm Calm - N/A   Haze
5:45 PM 51.8 °F - 39.2 °F 62% 30.13 in 5.0 mi Calm Calm - N/A   Haze
6:45 PM 46.4 °F 43.5 °F 39.2 °F 76% 30.14 in 5.0 mi NNW 5.8 mph - N/A   Haze
7:45 PM 42.8 °F - 39.2 °F 87% 30.14 in 5.0 mi Calm Calm - N/A   Haze
8:15 PM 41.0 °F - 41.0 °F 100% 30.15 in 5.0 mi Calm Calm - N/A   Clear
8:35 PM 42.8 °F - 42.8 °F 100% 30.15 in 5.0 mi Calm Calm - N/A   Clear
8:45 PM 41.0 °F - 41.0 °F 100% 30.15 in 5.0 mi Calm Calm - N/A   Haze
8:55 PM 41.0 °F - 41.0 °F 100% 30.15 in 5.0 mi Calm Calm - N/A   Clear
9:15 PM 39.2 °F - 39.2 °F 100% 30.16 in 5.0 mi Calm Calm - N/A   Clear
9:35 PM 39.2 °F - 39.2 °F 100% 30.17 in 5.0 mi Calm Calm - N/A   Clear
9:55 PM 39.2 °F - 39.2 °F 100% 30.17 in 5.0 mi Calm Calm - N/A   Clear
10:15 PM 39.2 °F - 39.2 °F 100% 30.18 in 5.0 mi Calm Calm - N/A   Clear
10:35 PM 37.4 °F - 37.4 °F 100% 30.18 in 5.0 mi Calm Calm - N/A   Clear
10:55 PM 37.4 °F - 37.4 °F 100% 30.18 in 5.0 mi Calm Calm - N/A   Clear
11:15 PM 37.4 °F - 37.4 °F 100% 30.18 in 5.0 mi Calm Calm - N/A   Clear
11:35 PM 37.4 °F - 37.4 °F 100% 30.18 in 4.0 mi Calm Calm - N/A   Clear
11:55 PM 35.6 °F - 35.6 °F 100% 30.18 in 5.0 mi Calm Calm - N/A   Clear